[[{"header":{"parameterUnit":"m.s-1","parameterCategory":1,"la1":30.2991,"la2":30.254,"lo1":-89.0895,"lo2":-89.0444,"dy":0.0017,"dx":0.0017,"nx":28,"ny":28,"refTime":"2025-04-14T09:00:00:Z","depth":0,"parameterNumber":2,"parameterNumberName":"U-component_of_WINDS"},"data":[0,0,0,0,0,0,0,0,0,0,0,0,0,0,0,0,0,0,0,0,0,0,0,0,0,0,0,0,0,0,0,0,0,0,0,0,0,0,0,0,0,0,0,0,0,0,0,0,0,0,0,0,0,0,0,0,0,0,3.1971,3.1973,0,3.2088,3.2089,3.209,3.2071,3.2069,3.2067,3.2065,3.2182,3.2187,3.2192,0,0,0,0,0,0,0,0,0,0,0,0,0,3.1729,3.1734,3.1971,3.1973,3.1974,3.2087,3.2089,3.209,3.2072,3.2069,3.2067,3.2064,3.2181,3.2186,3.2192,0,0,0,0,0,0,0,0,0,0,0,0,0,3.1839,3.1735,3.1971,3.1978,3.198,3.2087,3.2089,3.2091,3.2072,3.2069,3.2066,3.2063,3.2179,3.2186,3.2193,3.2299,0,0,3.2216,3.2219,0,0,0,0,0,0,0,0,3.1832,3.1847,3.1976,3.1978,3.198,3.2062,3.2046,3.2161,3.2073,3.2037,3.2065,3.2062,3.2144,3.2155,3.2183,3.2305,3.231,3.2217,3.2221,3.2224,3.2227,0,0,0,0,0,0,0,3.1825,3.1842,3.2017,3.1978,3.1981,3.1975,3.1987,3.2068,3.2106,3.204,3.2039,3.2053,3.2145,3.2176,3.2185,3.2311,3.2217,3.2223,3.2228,3.2231,3.2521,3.2525,0,0,0,0,0,0,3.1816,3.1836,3.2013,3.2021,3.1898,3.1981,3.1995,3.2039,3.2105,3.2113,3.2056,3.2052,3.2164,3.2177,3.2189,3.2314,3.2224,3.2231,3.2236,3.2518,3.2522,3.2526,0,0,0,0,0,0,3.181,3.1832,3.2009,3.1928,3.195,3.1989,3.2038,3.2043,3.2073,3.2117,3.2123,3.208,3.2163,3.2179,3.2271,3.2318,3.2235,3.2242,3.2514,3.2519,3.2524,3.2567,0,0,0,0,0,0,3.1804,3.183,3.1872,3.1929,3.1955,3.209,3.2041,3.2047,3.2086,3.2082,3.2142,3.2148,3.2161,3.226,3.2279,3.2327,3.2247,3.251,3.2517,3.2522,3.2562,3.2573,3.2583,0,0,0,0,0,3.1795,3.188,3.1874,3.1895,3.2008,3.2093,3.2107,3.2121,3.209,3.2131,3.2159,3.2147,3.2311,3.227,3.229,3.2342,3.2507,3.2515,3.2522,3.2557,3.2571,3.2582,0,0,0,0,0,0,3.1826,3.1887,3.1882,3.1988,3.2035,3.2089,3.2142,3.2136,3.2192,3.2186,3.2201,3.2214,3.2307,3.2334,3.2287,3.2446,3.2405,3.2416,3.2424,3.2438,3.2448,3.2438,3.2254,0,0,0,0,0,3.1846,3.1911,3.196,3.2049,3.2073,3.2103,3.2141,3.2147,3.2197,3.2217,3.2251,3.2299,3.236,3.2401,3.2461,3.2566,3.2577,3.2612,3.2622,3.263,3.2639,3.2693,3.2708,3.255,3.255,3.255,0,0,3.1886,3.1927,3.1968,3.2056,3.2094,3.2158,3.212,3.2192,3.2239,3.2227,3.2315,3.2343,3.2396,3.2495,3.254,3.252,3.2686,3.264,3.2646,3.2651,3.2702,3.2717,3.273,3.2555,3.2554,3.2553,0,0,3.1992,3.2031,3.2108,3.2146,3.2203,3.2222,3.2241,3.2296,3.2313,3.2402,3.2393,3.245,3.2557,3.2595,3.2628,3.2746,3.2735,3.2765,3.2818,3.2871,3.2883,3.2894,3.2932,3.2946,3.2774,3.2775,3.2775,0,3.2034,3.2133,3.2148,3.2219,3.2256,3.2249,3.2325,3.2361,3.2434,3.246,3.2437,3.257,3.2606,3.2711,3.2739,3.2768,3.2786,3.2757,3.288,3.2892,3.2902,3.2938,3.2953,3.2777,3.2777,3.2777,3.2777,0,3.218,3.2249,3.2303,3.2374,3.2418,3.2491,3.2515,3.2558,3.256,3.2581,3.267,3.2713,3.2779,3.2806,3.2809,3.291,3.2896,3.2877,3.2835,3.292,3.2954,3.2969,3.2782,3.2781,3.278,3.2779,0,0,3.2308,3.2385,3.2404,3.2435,3.2497,3.2549,3.2621,3.2686,3.272,3.2772,3.283,3.292,3.2902,3.2939,3.2947,3.2993,3.3079,3.2968,3.297,3.2984,3.3188,3.32,3.3216,3.3073,3.3076,3.3078,3.3182,0,3.2417,3.2544,3.2558,3.2671,3.2732,3.2725,3.2787,3.2831,3.2852,3.2906,3.293,3.2992,3.2965,3.2987,3.3033,3.3059,3.3119,3.3052,3.3125,3.3127,3.3108,3.3235,3.3247,3.3344,3.3196,3.3199,3.3201,0,3.2561,3.2615,3.2733,3.2783,3.281,3.2865,3.2924,3.2977,3.3025,3.3037,3.3078,3.3079,3.3151,3.3108,3.3205,3.3159,3.319,3.3207,3.3211,3.3215,3.3167,3.3239,3.3375,3.3388,3.3223,3.3221,3.3219,0,3.2637,3.274,3.2823,3.285,3.2912,3.295,3.2978,3.3023,3.306,3.3112,3.3136,3.3195,3.3227,3.3272,3.3288,3.3256,3.3383,3.3343,3.3392,3.3392,3.3417,3.3414,3.3556,3.3443,3.3442,3.3442,3.3442,0,3.2755,3.2827,3.2858,3.2908,3.2988,3.3003,3.3081,3.3106,3.3146,3.32,3.3199,3.3249,3.3269,3.3322,3.3335,3.3411,3.3427,3.3436,3.3438,3.3435,3.3433,3.3453,3.3445,3.3446,3.3445,3.3444,3.3444,0,3.2853,3.2877,3.2966,3.3017,3.3032,3.3087,3.313,3.3178,3.3199,3.3267,3.3283,3.3315,3.3377,3.3398,3.3474,3.3483,3.357,3.3568,3.3554,3.3553,3.36,3.3594,3.3756,3.3777,3.3653,3.3654,3.3655,0,3.2925,3.2979,3.3036,3.3072,3.3101,3.3159,3.3197,3.3214,3.3253,3.331,3.335,3.3412,3.3462,3.3561,3.359,3.3647,3.3644,3.3697,3.3653,3.3646,3.364,3.3636,3.3639,3.3705,3.3706,3.3707,3.3708,0,3.3048,3.3057,3.3112,3.317,3.3215,3.3261,3.3307,3.3336,3.3359,3.3403,3.3466,3.3505,3.3581,3.3641,3.3699,3.3725,3.3719,3.3722,3.3736,3.3731,3.3718,3.3722,3.3572,3.3718,3.3717,3.3716,3.3715,3.3715,3.3133,3.318,3.3226,3.3286,3.3321,3.3363,3.3409,3.3436,3.3489,3.3552,3.3559,3.3626,3.367,3.3747,3.3777,3.3828,3.3813,3.3834,3.3839,3.3843,3.3844,3.3713,3.3839,3.3839,3.3839,3.3839,3.3838,0,3.3253,3.3282,3.3337,3.34,3.3446,3.3438,3.3487,3.3526,3.3585,3.3627,3.3676,3.3747,3.3805,3.3838,3.3896,3.393,3.3929,3.3944,3.394,3.3945,3.3857,3.3837,3.3944,3.3944,3.3944,3.3944,3.3944,3.3944,3.332,3.3398,3.3412,3.3506,3.3535,3.3601,3.3629,3.3666,3.37,3.3779,3.3827,3.3849,3.3886,3.3946,3.3998,3.4006,3.4025,3.4042,3.4048,3.3963,3.3952,3.3942,3.3923,3.4047,3.4047,3.4132,3.4133,3.4133]},{"header":{"parameterUnit":"m.s-1","parameterCategory":1,"la1":30.2991,"la2":30.254,"lo1":-89.0895,"lo2":-89.0444,"dy":0.0017,"dx":0.0017,"nx":28,"ny":28,"refTime":"2025-04-14T09:00:00:Z","depth":0,"parameterNumber":3,"parameterNumberName":"V-component_of_WINDS"},"data":[0,0,0,0,0,0,0,0,0,0,0,0,0,0,0,0,0,0,0,0,0,0,0,0,0,0,0,0,0,0,0,0,0,0,0,0,0,0,0,0,0,0,0,0,0,0,0,0,0,0,0,0,0,0,0,0,0,0,3.3721,3.3722,0,3.3807,3.3808,3.3809,3.3779,3.3777,3.3775,3.3773,3.3858,3.3862,3.3866,0,0,0,0,0,0,0,0,0,0,0,0,0,3.3525,3.3529,3.3721,3.3722,3.3723,3.3807,3.3808,3.3809,3.3779,3.3777,3.3774,3.3772,3.3856,3.3861,3.3866,0,0,0,0,0,0,0,0,0,0,0,0,0,3.361,3.353,3.3721,3.3718,3.3719,3.3807,3.3808,3.381,3.3779,3.3776,3.3774,3.3771,3.3855,3.3861,3.3867,3.3961,0,0,3.3885,3.3888,0,0,0,0,0,0,0,0,3.3606,3.3618,3.3717,3.3718,3.3719,3.3779,3.377,3.386,3.378,3.3756,3.3773,3.377,3.3834,3.3841,3.3864,3.3965,3.3969,3.3886,3.3889,3.3892,3.3894,0,0,0,0,0,0,0,3.36,3.3614,3.3755,3.3719,3.372,3.3711,3.372,3.3787,3.381,3.3758,3.3756,3.3767,3.3833,3.3858,3.3865,3.397,3.3885,3.3891,3.3895,3.3897,3.415,3.4153,0,0,0,0,0,0,3.3594,3.3609,3.3752,3.3757,3.3654,3.3717,3.3727,3.3763,3.3809,3.3813,3.3769,3.3765,3.3849,3.3858,3.3868,3.398,3.3892,3.3897,3.3901,3.4147,3.4151,3.4154,0,0,0,0,0,0,3.359,3.3607,3.3749,3.3683,3.37,3.3723,3.3764,3.3766,3.379,3.3818,3.3821,3.379,3.3847,3.386,3.3938,3.3983,3.39,3.3906,3.4144,3.4148,3.4153,3.4206,0,0,0,0,0,0,3.3584,3.3606,3.3643,3.3684,3.3704,3.3819,3.3767,3.377,3.3801,3.3797,3.3838,3.3842,3.3846,3.3929,3.3944,3.3989,3.391,3.414,3.4146,3.4151,3.42,3.4212,3.4222,0,0,0,0,0,3.3577,3.3655,3.3645,3.3663,3.3751,3.3821,3.3832,3.3836,3.3805,3.3842,3.3859,3.3841,3.3976,3.3937,3.3954,3.4002,3.4137,3.4144,3.4151,3.4195,3.4209,3.4221,0,0,0,0,0,0,3.3618,3.366,3.365,3.3743,3.3779,3.3816,3.3863,3.3851,3.3896,3.389,3.3891,3.3901,3.3981,3.3999,3.3956,3.4094,3.4051,3.4062,3.4079,3.4093,3.4104,3.4097,3.3915,0,0,0,0,0,3.3638,3.3693,3.3726,3.3804,3.3823,3.384,3.387,3.387,3.3907,3.3921,3.3944,3.398,3.4029,3.4062,3.411,3.4203,3.421,3.4244,3.4254,3.4263,3.4272,3.432,3.4334,3.4177,3.4177,3.4177,0,0,3.3679,3.3709,3.3743,3.3813,3.3841,3.3895,3.3853,3.3913,3.3953,3.393,3.4005,3.4023,3.4062,3.4148,3.4186,3.4165,3.4317,3.4272,3.4279,3.4283,3.4328,3.4343,3.4356,3.4182,3.4181,3.418,0,0,3.3782,3.3811,3.3879,3.3907,3.395,3.396,3.3977,3.4015,3.4027,3.4102,3.4085,3.4132,3.4219,3.4247,3.4272,3.4384,3.4368,3.4399,3.4455,3.4502,3.4514,3.4525,3.4563,3.4577,3.4408,3.4408,3.4408,0,3.3828,3.3911,3.3915,3.3976,3.4006,3.3989,3.4056,3.4083,3.4138,3.4159,3.4135,3.4242,3.4267,3.4358,3.4385,3.4407,3.4423,3.4394,3.4512,3.4523,3.4533,3.4569,3.4584,3.4412,3.4411,3.4411,3.4411,0,3.3964,3.4022,3.4071,3.4126,3.4161,3.4225,3.4237,3.4272,3.4268,3.428,3.4356,3.4386,3.4438,3.4459,3.4456,3.4549,3.4534,3.4512,3.4468,3.4552,3.4585,3.4599,3.4417,3.4415,3.4414,3.4413,0,0,3.4095,3.415,3.4168,3.4192,3.4237,3.4281,3.4343,3.4395,3.4424,3.4463,3.4513,3.4586,3.4565,3.4594,3.4593,3.4634,3.4718,3.4606,3.4607,3.4624,3.4819,3.4835,3.4851,3.4708,3.4711,3.4713,3.4815,0,3.4201,3.4311,3.4315,3.4415,3.4467,3.445,3.4504,3.4536,3.4549,3.4593,3.4607,3.4658,3.4627,3.4644,3.4684,3.4699,3.4757,3.4692,3.4753,3.4755,3.4743,3.4869,3.4887,3.4982,3.4829,3.4831,3.4833,0,3.4339,3.4382,3.4487,3.4523,3.4545,3.4593,3.464,3.4684,3.4719,3.4725,3.4757,3.4749,3.481,3.4765,3.4848,3.4804,3.4829,3.484,3.4844,3.4849,3.4798,3.4876,3.5013,3.5027,3.4854,3.4852,3.485,0,3.4421,3.4506,3.4579,3.46,3.4644,3.4678,3.4698,3.4731,3.4761,3.4801,3.482,3.4867,3.4892,3.4927,3.4932,3.4899,3.5014,3.4971,3.5019,3.5019,3.5044,3.5042,3.5185,3.5062,3.5062,3.5062,3.5062,0,3.4538,3.4603,3.4617,3.4662,3.4733,3.4736,3.4806,3.4822,3.4851,3.4898,3.4886,3.4929,3.4933,3.4978,3.4981,3.5048,3.506,3.5065,3.5065,3.5066,3.5065,3.5081,3.5074,3.5066,3.5065,3.5064,3.5063,0,3.4643,3.4655,3.4734,3.4769,3.4779,3.4829,3.4858,3.49,3.4911,3.497,3.4984,3.5001,3.5052,3.506,3.512,3.5123,3.5202,3.5196,3.5191,3.5189,3.5237,3.5232,3.5395,3.5416,3.528,3.5282,3.5283,0,3.4716,3.4765,3.4805,3.4836,3.4857,3.4907,3.4938,3.4942,3.4974,3.5017,3.5053,3.5103,3.5143,3.5225,3.5242,3.5287,3.5281,3.5335,3.5287,3.5285,3.5279,3.5276,3.528,3.5343,3.5345,3.5346,3.5347,0,3.4843,3.4847,3.4892,3.4939,3.4976,3.5014,3.5049,3.5074,3.5082,3.5119,3.5171,3.5202,3.5263,3.5312,3.5357,3.5375,3.5362,3.5362,3.5375,3.5376,3.537,3.5372,3.5214,3.5358,3.5357,3.5356,3.5356,3.5355,3.4933,3.4975,3.501,3.506,3.5087,3.512,3.516,3.5176,3.5221,3.5271,3.527,3.5327,3.5359,3.5417,3.5438,3.5482,3.5464,3.5484,3.5489,3.5493,3.5497,3.5364,3.549,3.549,3.5489,3.5489,3.5489,0,3.5058,3.508,3.5126,3.5175,3.5214,3.52,3.5237,3.527,3.5321,3.5352,3.5392,3.5451,3.5498,3.5518,3.5564,3.5594,3.5589,3.5606,3.5603,3.5607,3.5511,3.5494,3.5609,3.5609,3.5609,3.5609,3.5609,3.5609,3.5128,3.5198,3.5205,3.5288,3.5308,3.5364,3.5387,3.5416,3.544,3.5507,3.5547,3.556,3.5586,3.5633,3.5674,3.5679,3.5695,3.5714,3.5716,3.5626,3.5614,3.5602,3.5586,3.5718,3.5719,3.5808,3.5809,3.5809]}]]